Main page
METAR-TAF:

METAR-TAF

Airports :

Belo Horizonte/Pampulha – Carlos Drummond de Andrade Airport

Belo Horizonte, Minas Gerais, Brazil

latitude: 19-51S, longitude: 043-57W, elevation: 785 m

Current weather observation

The report was made 47 minutes ago, at 07:00 UTC
Wind 2 kt from the East
Temperature 16°C
Humidity 94%
Pressure 1017 hPa
Visibility 10 km or more
no clouds below 1500 m and no cumulonimbus

METAR: SBBH 200700Z 08002KT CAVOK 16/15 Q1017

Time: 04:47 (07:47 UTC)


TAF: missing

Weather observations and forecasts of more than 4000 airports (METAR and TAF reports).

The available stations are represented by yellow and red dots on the map.

Hover mouse over dot to see the name of the station.

Then click to see weather observations and forecasts.

To change the map : click on the green buttons with a black cross to zoom in, on the green button with a dash to zoom out, or on the green arrows for adjacent maps.


METAR-TAF: